Weather History for KPUB - May, 2013

Change the Weather History Date:

Tuesday, May 14, 2013

  Actual Average Record
Temperature  
Mean Temperature 72 °F 60 °F  
Max Temperature 91 °F 76 °F 95 °F (1996)
Min Temperature 52 °F 44 °F 29 °F (2014)
Degree Days  
Heating Degree Days 0 6  
Month to date heating degree days 169 107  
Since 1 July heating degree days 5682 5547  
Cooling Degree Days 7 1  
Month to date cooling degree days 11 5  
Year to date cooling degree days 12 7  
Growing Degree Days 23 (Base 50)    
Moisture  
Dew Point 37 °F    
Average Humidity 30    
Maximum Humidity 51    
Minimum Humidity 9    
Precipitation  
Precipitation T in 0.05 in 0.81 in (2005)
Month to date precipitation 0.67 0.70  
Year to date precipitation 1.87 3.68  
Snow  
Snow 0.00 in 0.00 in T in (1912)
Month to date snowfall 0.6 0.5  
Since 1 July snowfall 24.4 31.8  
Snow Depth 0.00 in    
Sea Level Pressure  
Sea Level Pressure 29.81 in    
Wind  
Wind Speed 11 mph (West)    
Max Wind Speed 37 mph    
Max Gust Speed 46 mph    
Visibility 10 miles    
Events Rain    
T = Trace of Precipitation, MM = Missing Value Source: NWS Daily Summary

Daily Weather History Graph

Daily Weather History Graph

Search for Another Location

Airport or City:

Trip Planner

Search our weather history database for the weather conditions in past years. The results will help you decide how hot, cold, wet, or windy it might be!

Date:

Astronomy

May. 14, 2013 Rise Set
Actual Time 5:47 AM MDT 8:01 PM MDT
Civil Twilight 5:17 AM MDT 8:31 PM MDT
Nautical Twilight 4:41 AM MDT 9:07 PM MDT
Astronomical Twilight 4:01 AM MDT 9:47 PM MDT
Moon 9:29 AM MDT (5/14) 11:51 PM MDT (5/14)
Length of Visible Light 15h 13m
Length of Day
14h 14m
Waxing Crescent, 19% of the Moon is Illuminated
May 14
Waxing Crescent
May 17
First Quarter
May 24
Full
May 31
Last Quarter
Jun 8
New

Hourly Weather History & Observations

Time (MDT) Temp. Dew Point Humidity Pressure Visibility Wind Dir Wind Speed Gust Speed Precip Events Conditions
12:53 AM 59.0 °F 37.0 °F 44% 29.87 in 10.0 mi West 6.9 mph - N/A   Clear
1:53 AM 59.0 °F 37.0 °F 44% 29.86 in 10.0 mi West 4.6 mph - N/A   Clear
2:53 AM 57.9 °F 39.0 °F 49% 29.86 in 10.0 mi SW 5.8 mph - N/A   Clear
3:53 AM 59.0 °F 37.9 °F 46% 29.85 in 10.0 mi WSW 6.9 mph - N/A   Clear
4:53 AM 55.0 °F 37.0 °F 51% 29.86 in 10.0 mi WSW 6.9 mph - N/A   Clear
5:53 AM 55.0 °F 37.0 °F 51% 29.86 in 10.0 mi WNW 8.1 mph - N/A   Clear
6:53 AM 61.0 °F 37.0 °F 41% 29.86 in 10.0 mi WSW 5.8 mph - N/A   Clear
7:53 AM 66.9 °F 37.9 °F 34% 29.86 in 10.0 mi WNW 6.9 mph - N/A   Clear
8:53 AM 73.9 °F 37.0 °F 26% 29.85 in 10.0 mi WNW 10.4 mph - N/A   Clear
9:53 AM 79.0 °F 34.0 °F 20% 29.83 in 10.0 mi Calm Calm - N/A   Clear
10:53 AM 82.0 °F 33.1 °F 17% 29.82 in 10.0 mi Variable 4.6 mph - N/A   Clear
11:53 AM 87.1 °F 30.9 °F 13% 29.78 in 10.0 mi SE 5.8 mph - N/A   Clear
12:53 PM 88.0 °F 30.0 °F 12% 29.74 in 10.0 mi SE 9.2 mph - N/A   Clear
1:53 PM 89.1 °F 25.0 °F 10% 29.73 in 10.0 mi Variable 6.9 mph - N/A   Clear
2:39 PM 86.0 °F 37.4 °F 18% 29.91 in 10.0 mi NNW 33.4 mph 44.9 mph N/A   Clear
2:53 PM 87.1 °F 36.0 °F 16% 29.72 in 10.0 mi North 33.4 mph 42.6 mph N/A   Clear
3:53 PM 88.0 °F 30.0 °F 12% 29.70 in 10.0 mi North 18.4 mph 32.2 mph N/A   Clear
4:53 PM 88.0 °F 33.1 °F 14% 29.70 in 10.0 mi NNW 17.3 mph 27.6 mph N/A   Clear
5:53 PM 84.0 °F 37.0 °F 19% 29.72 in 10.0 mi North 23.0 mph 34.5 mph N/A   Clear
6:53 PM 78.1 °F 37.0 °F 23% 29.71 in 10.0 mi NNW 17.3 mph 32.2 mph N/A   Clear
7:53 PM 77.0 °F 35.1 °F 22% 29.76 in 10.0 mi West 16.1 mph 25.3 mph N/A   Overcast
8:00 PM 77.0 °F 35.6 °F 22% 29.97 in 10.0 mi South 15.0 mph 24.2 mph N/A   Overcast
8:09 PM 71.6 °F 42.8 °F 35% 29.97 in 8.0 mi South 24.2 mph 35.7 mph N/A   Overcast
8:53 PM 69.1 °F 45.0 °F 42% 29.81 in 10.0 mi SW 23.0 mph 31.1 mph 0.00 in Rain Light Rain
9:53 PM 69.1 °F 43.0 °F 39% 29.83 in 10.0 mi WSW 8.1 mph 25.3 mph 0.00 in   Overcast
10:53 PM 69.1 °F 42.1 °F 38% 29.80 in 10.0 mi North 6.9 mph - N/A   Scattered Clouds
11:53 PM 64.9 °F 43.0 °F 45% 29.77 in 10.0 mi Variable 6.9 mph - N/A   Clear